TimeEDT,TemperatureF,Dew PointF,Humidity,Sea Level PressureIn,VisibilityMPH,Wind Direction,Wind SpeedMPH,Gust SpeedMPH,PrecipitationIn,Events,Conditions,WindDirDegrees,DateUTC
12:53 AM,57.0,39.0,51,29.96,10.0,SSE,8.1,-,N/A,,Clear,150,2013-04-24 04:53:00
1:53 AM,55.9,39.9,55,29.94,10.0,SSE,8.1,-,N/A,,Partly Cloudy,150,2013-04-24 05:53:00
2:53 AM,54.0,39.9,59,29.92,10.0,SSE,8.1,-,N/A,,Clear,160,2013-04-24 06:53:00
3:53 AM,55.0,39.9,57,29.91,10.0,South,8.1,-,N/A,,Mostly Cloudy,170,2013-04-24 07:53:00
4:53 AM,57.0,39.9,53,29.91,10.0,South,10.4,-,N/A,,Overcast,180,2013-04-24 08:53:00
5:53 AM,57.2,39.2,51,29.90,10.0,South,9.2,-,N/A,,Mostly Cloudy,180,2013-04-24 09:53:00
6:53 AM,57.9,41.0,53,29.89,10.0,South,8.1,-,N/A,,Mostly Cloudy,180,2013-04-24 10:53:00
7:53 AM,59.0,42.1,53,29.88,10.0,South,11.5,19.6,N/A,,Overcast,170,2013-04-24 11:53:00
8:53 AM,62.1,43.0,50,29.87,10.0,South,10.4,-,N/A,,Overcast,190,2013-04-24 12:53:00
9:53 AM,66.0,46.0,48,29.85,10.0,South,13.8,-,N/A,,Mostly Cloudy,190,2013-04-24 13:53:00
10:53 AM,69.1,48.0,47,29.82,10.0,SSW,18.4,27.6,N/A,,Overcast,210,2013-04-24 14:53:00
11:53 AM,69.1,48.9,49,29.82,10.0,SW,13.8,24.2,N/A,,Overcast,220,2013-04-24 15:53:00
12:53 PM,69.1,48.9,49,29.81,10.0,SSW,13.8,21.9,N/A,,Overcast,210,2013-04-24 16:53:00
1:53 PM,64.9,53.1,65,29.79,7.0,NW,9.2,-,0.01,Rain,Light Rain,310,2013-04-24 17:53:00
2:17 PM,59.0,55.4,88,29.81,1.8,West,17.3,26.5,N/A,Rain,Heavy Rain,280,2013-04-24 18:17:00
2:33 PM,59.0,55.4,88,29.81,2.0,WSW,15.0,21.9,0.16,Rain-Thunderstorm,Thunderstorms and Rain,250,2013-04-24 18:33:00
2:53 PM,59.0,55.0,87,29.81,3.0,WSW,12.7,-,0.22,Rain-Thunderstorm,Thunderstorms and Rain,240,2013-04-24 18:53:00
3:33 PM,60.8,55.4,82,29.79,10.0,SW,15.0,23.0,0.01,Rain,Light Rain,230,2013-04-24 19:33:00
3:53 PM,62.1,53.1,72,29.77,10.0,SSW,25.3,39.1,0.01,,Overcast,210,2013-04-24 19:53:00
4:53 PM,62.1,52.0,70,29.78,10.0,SSW,20.7,42.6,0.00,,Mostly Cloudy,210,2013-04-24 20:53:00
5:37 PM,62.6,53.6,72,29.78,10.0,SW,19.6,25.3,N/A,,Overcast,220,2013-04-24 21:37:00
5:53 PM,57.0,51.1,81,29.83,7.0,WNW,17.3,35.7,0.01,Rain,Light Rain,300,2013-04-24 21:53:00
6:00 PM,51.8,46.4,82,29.84,9.0,WNW,16.1,34.5,0.00,Rain,Light Rain,290,2013-04-24 22:00:00
6:37 PM,46.4,42.8,87,29.89,10.0,NW,15.0,28.8,0.00,Rain,Light Rain,310,2013-04-24 22:37:00
6:53 PM,45.0,39.9,82,29.93,10.0,NW,15.0,31.1,0.01,Rain,Light Rain,310,2013-04-24 22:53:00
7:53 PM,43.0,37.9,82,30.01,10.0,NW,11.5,31.1,0.00,,Overcast,310,2013-04-24 23:53:00
8:53 PM,41.0,37.0,86,30.07,7.0,WNW,16.1,26.5,N/A,,Overcast,300,2013-04-25 00:53:00
9:53 PM,41.0,35.1,79,30.13,10.0,West,9.2,-,N/A,,Overcast,280,2013-04-25 01:53:00
10:53 PM,39.9,33.1,77,30.16,10.0,WNW,8.1,-,N/A,,Overcast,290,2013-04-25 02:53:00
11:48 PM,39.2,33.8,81,30.15,10.0,West,11.5,17.3,N/A,,Overcast,270,2013-04-25 03:48:00
11:53 PM,39.9,33.1,77,30.17,10.0,West,11.5,-,N/A,,Overcast,280,2013-04-25 03:53:00